Regional Weather Roundup
Issued by NWS

Home | Current Version | Previous Version | Graphics & Text | Print | Product List | Glossary On
Versions: 1 2 3 4 5 6 7 8 9 10 11 12 13 14 15 16 17 18 19 20 21 22 23 24 25 26 27 28 29 30 31 32 33 34 35 36 37 38 39 40 41 42 43 44 45 46 47 48 49 50
000
ASUS44 KMEG 250110
RWRTN
TENNESSEE HOURLY STATE WEATHER ROUNDUP
NATIONAL WEATHER SERVICE MEMPHIS TN
800 PM CDT SUN JUL 24 2016

TNZ002-004-019-021-049-052-054-088>092-250200-
WEST TENNESSEE

CITY           SKY/WX    TMP DP  RH WIND       PRES   REMARKS
MEMPHIS INTL   CLOUDY    87  75  67 S5        29.95F HX  96
NWS MEMPHIS      N/A     87 N/A N/A MISG        N/A
JACKSON        LGT RAIN  80  78  94 S5        29.97S
DYERSBURG      PTCLDY    84  79  84 MISG      29.95S HX  96
UNION CITY     CLEAR     84  81  89 CALM      29.95R HX  98
PARIS          PTCLDY    84  75  74 S3        29.98S HX  92
LEXINGTON      CLEAR     79  75  89 W3        29.98R
$$

TNZ008-025-027-028-033-062-065-066-250200-
NORTH MIDDLE TENNESSEE

CITY           SKY/WX    TMP DP  RH WIND       PRES   REMARKS
NASHVILLE      CLOUDY    89  73  59 E6        30.00R HX  97
CLARKSVILLE    CLOUDY    85  76  74 SE5       29.98R HX  94
SMYRNA         CLOUDY    88  73  60 CALM      30.00R HX  95
COOKEVILLE     CLEAR     84  81  89 CALM      30.03R HX  98
CROSSVILLE     CLEAR     77  75  93 CALM      30.10R
$$

TNZ061-075-076-078-094-096-097-250200-
SOUTH MIDDLE TENNESSEE

CITY           SKY/WX    TMP DP  RH WIND       PRES   REMARKS
FAYETTEVILLE   MOCLDY    81  72  74 CALM      30.03R
TULLAHOMA      CLEAR     82  68  61 CALM      30.05R
WINCHESTER     PTCLDY    75  73  94 E3        30.04S
MCMINNVILLE    CLEAR     84  79  84 CALM      30.05R HX  96
COLUMBIA       CLEAR     84  81  89 S3        30.00R HX  98
SHELBYVILLE    CLEAR     84  79  84 SE3       30.03R HX  96
$$

TNZ017-018-042-046-047-250200-
NORTHEAST TENNESSEE

CITY           SKY/WX    TMP DP  RH WIND       PRES   REMARKS
TRI CITIES     CLOUDY    81  68  64 N7        30.06R
ELIZABETHTON   CLOUDY    79  72  78 E6        30.07R
$$

TNZ012-013-036-069-073-074-250200-
CENTRAL EAST TENNESSEE

CITY           SKY/WX    TMP DP  RH WIND       PRES   REMARKS
KNOXVILLE      CLOUDY    88  69  53 SW6       30.01R HX  92
OAK RIDGE      CLEAR     87  72  60 W3        30.04R HX  93
GATLINBURG     CLEAR     82  70  65 SE3       30.03R
MORRISTOWN     CLEAR     86  72  62 SW5       30.04R HX  92
$$

TNZ083-085-099-250200-
SOUTHEAST TENNESSEE

CITY           SKY/WX    TMP DP  RH WIND       PRES   REMARKS
CHATTANOOGA    CLOUDY    82  73  74 NE5       30.03R
$$

SKY/WX REPORTED AS FAIR MEANS FEW OR NO CLOUDS BELOW
12 THOUSAND FEET.




USA.gov is the U.S. government's official web portal to all federal, state and local government web resources and services.